THOR ABLESTAR DEB, 152

Orbit data source: Space-Track

THOR ABLESTAR DEB, 152 is space debris in LEO originally from a launch on Thu, 29 Jun 1961 UTC launched from the Air Force Eastern Test Range (AFETR). Debris objects in space refer to the collection of defunct objects orbiting the Earth. Examples of debris include non-operational satellites, rocket bodies, and fragments generated from explosions, collisions, or faulty payload assembly.

Loading next visibility...
Identifier
152, 1961-015AN
Orbit
LEO
Country
Flag of USUS
Related business
Manufacturer
Unknown
Mission
Spacecraft
Bus & Motor
Unknown
Mass
Unknown
Launch date (UTC)
1961-06-29 (65 years ago)
Launch vehicle
Unknown
Launch site
Air Force Eastern Test Range (AFETR)
Object type
Payload
Rocket body
Debris
Shape & HBR
Unknown shape, 0.2 m
Radar Cross Section
Medium (>0.1 m² and <1 m²)

Expand to show TLE details & history
Last TLE update: 8 hours ago

TLE from 8 hours ago
0 THOR ABLESTAR DEB
1 00152U 61015AN  26127.87935935 -.00000144  00000-0 -30103-4 0  9990
2 00152  66.5941  62.2120 0155387 226.0357 132.7830 14.11508902320390
Epoch: 2026-05-07T21:06Z
TLE epoch observation values (Epoch: 2026-05-07T21:06:16.647Z)
Latitude
-0.00002°
Longitude
-120.07654°
Altitude
933.559 km
Speed
7.346 km/s
True Right ascension
04h 08m 50s
True Declination
0° 00' 00"
Sunlit
Object was in daylight at epoch
Visualization orbit readout
Latitude
Unknown
Longitude
Unknown
Altitude
Unknown
Speed
Unknown
Apparent Right ascension
Unknown
Apparent Declination
Unknown
Sunlit
N/A
Visualization observer readout
Local Sidereal Time
13:25:04
Azimuth
Unknown
Elevation
Unknown
Doppler factor
Unknown
Orbital elements
Apogee altitude
964.97 km
Perigee altitude
740.257 km
Semi-major axis
7,230.751 km
Eccentricity
0.01554
Inclination
66.5941°
RAAN
62.212°
Arg. of periapsis
226.0357°
True anomaly
134.07271°
Mean anomaly
132.783°
Eccentric anomaly
133.42956°
Mean motion
3.52995 °/min
Orbital period
101.98 mins
BSTAR
-0.000030103
Loading maneuver chart data...
Computing Atmospheric mass density...

Documentation

Showing up to 5 results
|